Other Public Products
Issued by NWS Charleston, SC

Current Version | Previous Version | Graphics & Text | Print | Product List | Glossary On
Versions: 1 2 3 4 5 6 7 8 9 10 11 12 13 14 15 16 17 18 19 20 21 22 23 24 25 26 27 28 29 30 31 32 33 34 35 36 37 38 39 40 41 42 43 44 45 46 47 48 49 50
756
FPUS82 KCHS 201427
OPUCHS

TEST...KCHS/KSAV Gateway Observations...TEST
National Weather Service Charleston SC
900 AM EST MON FEB 20 2017

NOTE: "fair" indicates few or no clouds below 12,000 feet with no
significant weather and/or obstructions to visibility.

SCZ050-WAZ558-NCZ071-TXZ119-213-PAZ071-DCZ001-FLZ074-172-MI076-
NYZ176-178-MAZ016-IL014-TNZ027-NJZ106-GAZ044-MD014-201500-
...Gateway Observations for Charleston International...

CITY           SKY/WX    TMP DP  RH WIND       PRES   REMARKS
Chas Airport   MOSUNNY   59  46  62 NE9       30.18R
Seattle        CLOUDY    41  39  93 CALM      29.51F
Charlotte      MOSUNNY   55  44  66 N6        30.25R
Dallas DFW     CLOUDY    59  57  93 SE14      29.90F
Dallas Love    LGT RAIN  58  56  93 SE22G29   29.91F
Philladelphia  SUNNY     50  32  50 N14       30.23R
Wash National  MOSUNNY   57  43  59 NW13      30.24R
Baltimore      MOSUNNY   55  39  54 N5        30.23R
Miami          MOSUNNY   72  64  76 NE5       30.12R
Detroit        CLOUDY    40  32  73 NE7       30.31R WCI  35
Newark         MOSUNNY   47  30  51 NW13      30.18R
Laguardia      SUNNY     47  32  56 NW14      30.17R
J F K          MOSUNNY   49  33  54 N12       30.18R
Boston Logan   MOSUNNY   40  23  50 NW15G22   30.14R WCI  32
Ft. Lauderdale MOSUNNY   75  66  73 N5        30.11R
Chicago O`Hare PTSUNNY   49  45  86 SE8       30.13S FOG
Chicago Midway PTSUNNY   49  44  83 SE8       30.14S FOG
Houston Bush   HVY RAIN  62  60  93 N8        30.02R FOG
Houston Hobby  LGT RAIN  63  60  90 N17       30.00R
Nashville      CLOUDY    50  47  89 CALM      30.18S FOG
Atlanta        PTSUNNY   57  48  72 E7        30.20R

$$

GAZ044-118-TXZ119-213-NCZ071-DCZ001-MDZ014-506-PAZ021-071-NJZ106-
NYZ176-178-MAZ106-OHZ011-021-055-MIZ076-KYZ091-ILZ014-INZ047-
MNZ060-201500-
...Gateway Observations for Savannah International...

CITY           SKY/WX    TMP DP  RH WIND       PRES   REMARKS
Savannah Arpt  MOSUNNY   61  49  64 NE7       30.19R
Atlanta        PTSUNNY   57  48  72 E7        30.20R
Charlotte      MOSUNNY   55  44  66 N6        30.25R
Dallas DFW     CLOUDY    59  57  93 SE14      29.90F
Houston Bush   HVY RAIN  62  60  93 N8        30.02R FOG
Wash National  MOSUNNY   57  43  59 NW13      30.24R
Wash Dulles    MOSUNNY   54  41  61 N10       30.24R
Baltimore      MOSUNNY   55  39  54 N5        30.23R
Philadelphia   SUNNY     50  32  50 N14       30.23R
Newark         MOSUNNY   47  30  51 NW13      30.18R
Laguardia      SUNNY     47  32  56 NW14      30.17R
J F K          MOSUNNY   49  33  54 N12       30.18R
Boston         MOSUNNY   40  23  50 NW15G22   30.14R WCI  32
Pittsburg      FOG       41  41 100 CALM      30.29R VSB<1/4
Akron          CLOUDY    40  36  86 E8        30.27S FOG     WCI  34
Cleveland      PTSUNNY   44  35  70 NE3       30.31R
Cincinnati     FOG       42  42 100 E6        30.23F VSB<1/4
Columbus       FOG       38  38 100 CALM      30.28S VSB<1/4
Detroit        CLOUDY    40  32  73 NE7       30.31R WCI  35
Chicago O`Hare PTSUNNY   49  45  86 SE8       30.13S FOG
Minneapolis    CLOUDY    49  43  80 E7        29.81F
Indianapolis   FOG       43  43 100 E7        30.20S VSB 1/8

$$




USA.gov is the U.S. government's official web portal to all federal, state and local government web resources and services.